Weather in Shumeyka

Russia / Saratov Oblast     51°33′50″N   46°15′00″E
temp.,
°C
wind,
m/s
gust,
m/s
humid.,
%
clouds,
%
prec.,
mm/h
press.,
hPa
HPBL,
m
26 february, fri
fri2601:00−6ssw4795100 0.4 1014208
04:00−1wsw3598100 1.1 1014136
07:00+1wnw3599100 0.4 1013126
10:00+1wnw3698100 0.5 1014150
13:00+1wsw349898 0.0 101489
16:00+1ssw4610099 0.8 1012166
19:00+2wsw48100100 0.8 1009188
22:00+2wsw51098100 1.1 1008244
27 february, sat
sat2701:00+2wsw61295100 0.1 1005308
04:00+2w51195100 0.1 1005294
07:00+2w51090100 0.1 1005359
10:00+1wsw4993100 0.1 1005294
13:00+1wsw51098100 0.1 1004320
16:00+1wsw5995100 0.1 1004326
19:00+1wsw4997100 0.1 1003362
22:00−1wsw5109299 0.1 1003233
28 february, sun
sun2801:000wsw5109698 0.1 1003327
04:00−7nw5118798 0.2 1005508
07:00−10nw5118789 0.0 1006578
10:00−12nw6108681 0.0 1009572
13:00−11nw698595 0.0 1010635
16:00−9nw698797 0.0 1012587
19:00−11nw5108897 0.0 1013333
22:00−13nnw5108858 0.0 1016278
1 march, mon
mon101:00−14nnw47890 0.0 1017181
04:00−16nnw47900 0.0 1019158
07:00−16nnw47900 0.0 1021162
10:00−15nnw47880 0.0 1022307
13:00−13nnw468713 0.0 1024409
16:00−12nnw368633 0.0 1024469
19:00−14nw349016 0.0 102637
22:00−15nw349019 0.0 102753
2 march, tue
tue201:00−16nw34900 0.0 102755
04:00−16w23900 0.0 102622
07:00−15sw349122 0.0 102547
10:00−10sw598961 0.0 1023344
13:00−5sw71186100 0.0 1020525
16:00−3wsw71390100 0.9 1017642
19:00−3wsw61391100 0.6 1014541
22:00−2wsw51191100 1.0 1012370